Location: Carnoy
(49.9849°N, 2.7558°E)
Time: 13:00:11
(UTC+00:00)

Meteor 1-21 Rocket - Pass Details

Date: 24 January 2020
Orbit: 834 x 907 km, 81.2° (Epoch: 16 February)

Event Time Altitude Azimuth Distance (km) Brightness Sun altitude
Rises 17:43:56 0° 184° (S) 3,393 7.6 -11.9°
Reaches altitude 10° 17:46:19 10° 183° (S) 2,470 6.9 -12.3°
Maximum altitude 17:51:54 75° 99° (E) 896 4.2 -13.2°
Drops below altitude 10° 17:57:39 10° 15° (NNE) 2,536 6.4 -14.1°
Sets 18:00:07 0° 14° (NNE) 3,490 7.1 -14.5°
